[Iaude] MPEC K04: 2024 JS17 [a=1.31,e=0.26,i=18.0,H=26.0]
    mpec at cfa.harvard.edu 
    mpec at cfa.harvard.edu
       
    Thu May 16 09:25:33 EDT 2024
    
    
  
M.P.E.C. 2024-K04                                  Issued 2024 May 16, 13:23 UT
     The Minor Planet Electronic Circulars contain information on unusual
         minor planets, routine data on comets and natural satellites,
         and occasional editorial announcements.  They are published
    on behalf of Division F of the International Astronomical Union by the
          Minor Planet Center, Smithsonian Astrophysical Observatory,
                          Cambridge, MA 02138, U.S.A.
			  
             Prepared using the Tamkin Foundation Computer Network
                              MPC at CFA.HARVARD.EDU
            URL https://www.minorplanetcenter.net/    ISSN 1523-6714
                                   2024 JS17                                    
Observations:
     K24J17S* C2024 05 15.87951 14 50 39.95 +12 53 28.8          18.0 G EK004K88
     K24J17S  C2024 05 15.88079 14 50 41.36 +12 54 51.9          17.6 G EK004K88
     K24J17S  C2024 05 15.88207 14 50 42.88 +12 56 14.6          18.2 G EK004K88
     K24J17S KC2024 05 15.88977314 50 51.37 +13 04 34.2          18.6 RoEK004K88
     K24J17S KC2024 05 15.89120414 50 52.95 +13 06 07.2          18.5 RoEK004K88
     K24J17S KC2024 05 15.89263214 50 54.59 +13 07 38.6          18.8 RoEK004K88
     K24J17S KB2024 05 15.89981 14 51 00.51 +13 15 37.1                XEK004M45
     K24J17S KB2024 05 15.90170 14 51 02.57 +13 17 38.8          19.2 GXEK004M45
     K24J17S KC2024 05 15.93298314 51 46.462+13 50 43.87         18.7 GVEK004Z80
     K24J17S KC2024 05 15.94457514 51 59.626+14 03 13.39         19.1 GVEK004Z80
     K24J17S KC2024 05 15.94619814 51 58.694+14 04 52.72         19.1 GXEK004G01
     K24J17S KC2024 05 15.95085214 51 59.64 +14 10 20.0          18.8 RoEK004K88
     K24J17S KC2024 05 15.95175714 52 00.64 +14 11 18.6          18.5 RoEK004K88
     K24J17S KC2024 05 15.95252114 52 05.782+14 11 38.18         18.2 GXEK004G01
     K24J17S KC2024 05 15.95763014 52 07.30 +14 17 37.5          18.6 RoEK004K88
     K24J17S KC2024 05 15.96196314 52 16.488+14 21 45.18         18.8 GXEK004G01
     K24J17S KC2024 05 15.96524714 52 20.189+14 25 18.88         19.6 GXEK004G01
     K24J17S KB2024 05 15.96953414 52 28.07 +14 30 56.8          19.0 GXEK004958
     K24J17S KC2024 05 15.97092614 52 29.782+14 31 35.29         18.7 GVEK004J95
     K24J17S KC2024 05 15.97225114 52 31.306+14 33 00.65         18.8 GVEK004J95
     K24J17S KB2024 05 15.97336814 52 32.40 +14 35 02.7          18.7 GXEK004958
     K24J17S KC2024 05 15.97344114 52 32.638+14 34 17.51         18.4 GVEK004J95
     K24J17S KC2024 05 15.97466514 52 34.015+14 35 36.67         18.6 GVEK004J95
     K24J17S KB2024 05 15.97564414 52 34.97 +14 37 30.4          19.1 GXEK004958
     K24J17S KC2024 05 15.97620014 52 28.30 +14 37 33.7          18.7 RoEK004K88
     K24J17S KC2024 05 15.97768514 52 29.94 +14 39 08.6          18.7 RoEK004K88
     K24J17S KC2024 05 15.97917214 52 31.64 +14 40 44.8          18.7 RoEK004K88
     K24J17S KC2024 05 16.07136514 54 25.238+16 19 11.46         18.6 GVEK004J95
     K24J17S KC2024 05 16.07266114 54 26.714+16 20 34.48         18.8 GVEK004J95
     K24J17S KC2024 05 16.07394414 54 28.219+16 21 56.88         19.0 GVEK004J95
     K24J17S KC2024 05 16.07526214 54 29.815+16 23 21.26         18.8 GVEK004J95
     K24J17S KC2024 05 16.17012814 56 49.49 +18 06 11.2          18.7 GVEK004H21
     K24J17S KC2024 05 16.17136414 56 50.90 +18 07 30.3          18.9 GVEK004H21
     K24J17S KC2024 05 16.17260014 56 52.32 +18 08 49.5          19.2 GVEK004H21
     K24J17S KC2024 05 16.17383614 56 53.75 +18 10 08.6          19.4 GVEK004H21
     K24J17S KB2024 05 16.51687815 04 32.649+24 09 12.63         18.8 GXEK004Q06
     K24J17S KB2024 05 16.52195815 04 38.851+24 14 26.57         18.9 GXEK004Q06
     K24J17S KB2024 05 16.52703515 04 44.969+24 19 41.04         18.2 GXEK004Q06
Observer details:
958 Observatoire de Dax.  Observer P. Dupouy.  0.50-m f/4.5 Reflector + CMO.
G01 Universitaetssternwarte Oldenburg.  Observers T. Hoffmann, D. Gauk.
    0.40-m f/5.8 Ritchey-Chretien + CCD.
H21 Astronomical Research Observatory, Westfield.  Observer R. Holmes.
    Measurers T. Linder, R. Holmes, L. Horn.  0.76-m f/3.0 astrograph + CCD.
J95 Great Shefford.  Observer P. Birtwhistle.  0.41-m f/6.3 Schmidt-Cassegrain
    + CCD.
K88 GINOP-KHK, Piszkesteto.  Observer K. Sarneczky.  0.60-m Schmidt + CCD.
M45 Starhopper Observatory, Sfantu Gheorghe.  Observer F. Ursache.  0.41-m
    f/7.5 reflector + CMO.
Q06 Tarui Observatory, Tarui.  Observer H. Watanabe.  0.35-m f/1.9 Schmidt-
    Cassegrain + CMO.
Z80 Northolt Branch Observatory.  Observer G. Wells.  0.25-m f/8.0 Ritchey-
    Chretien + CCD.
Orbital elements:
2024 JS17                                                Earth MOID = 0.0188 AU
Epoch 2024 Mar. 31.0 TT = JDT 2460400.5                 Veres                   
M 303.94307              (2000.0)            P               Q                  
n   0.66020340     Peri.   45.07642     +0.11727847     +0.96174209             
a   1.3062237      Node   233.26298     -0.97578499     +0.06524555             
e   0.2573417      Incl.   17.99558     -0.18463317     +0.26607362             
P   1.49           H   26.05          G   0.15           U   7                  
Residuals in seconds of arc
240515 K88  0.1-  0.4-    240515 G01  0.4+  0.9+    240515 K88  0.3-  0.2-
240515 K88  0.3-  0.2-    240515 K88  0.3+  0.3-    240516 J95  0.5+  0.8-
240515 K88  1.1+  0.4-    240515 G01  0.1+  1.5-    240516 J95  0.1-  0.7-
240515 K88  0.2-  0.2+    240515 G01  0.4-  0.3+    240516 J95  0.1-  0.4-
240515 K88  0.4-  0.5+    240515 958  1.0-  0.3+    240516 J95  0.6+  0.3-
240515 K88  0.3+  0.5-    240515 J95  0.1-  0.5-    240516 H21  0.0   0.1+
240515 M45  0.9+  0.2+    240515 J95  0.2+  0.6-    240516 H21  0.1-  0.0
240515 M45  0.4+  0.3-    240515 958  0.2-  1.3-    240516 H21  0.1-  0.1+
240515 Z80  0.1+  0.8+    240515 J95  0.0   0.6-    240516 H21  0.1+  0.0
240515 Z80  0.7+  0.5+    240515 J95  0.2-  0.5-    240516 Q06  0.0   0.5-
240515 G01 (1.7+  3.8+)   240515 958  0.2+  0.5-    240516 Q06  0.7+  0.6-
240515 K88  0.2-  0.8-    240515 K88  0.2+  0.1-    240516 Q06  0.5+  0.3+
240515 K88  0.4-  0.6-    240515 K88  0.4-  0.7-
Ephemeris:
2024 JS17                a,e,i = 1.31, 0.26, 18                  q = 0.9701
Date    TT    R. A. (2000) Decl.     Delta      r    Elong.  Phase     V
2024 04 16    12 29 35.8 -63 18 55   0.1954  1.1281   125.4    46.5    24.5
...
2024 05 01    12 44 11.9 -60 36 56   0.09820 1.0737   130.3    45.7    22.9
...
2024 05 09    13 21 07.8 -50 11 00   0.04843 1.0477   141.2    37.1    21.1
...
2024 05 15    14 33 32.0 -02 28 42   0.02050 1.0300   158.9    20.7    18.7
2024 05 16    14 53 04.9 +15 06 23   0.01977 1.0272   144.5    34.9    19.0
2024 05 17    15 15 32.7 +32 03 12   0.02108 1.0245   128.4    50.7    19.6
...
2024 05 23    18 17 08.7 +71 31 51   0.04975 1.0093    84.9    92.3    22.8
...
2024 05 31    21 01 43.4 +74 38 17   0.09794 0.9924    74.6    99.9    24.6
...
2024 06 15    22 39 37.8 +73 13 16   0.1867  0.9729    71.6    97.9    25.9
M. P. C. Staff               (C) Copyright 2024 MPC           M.P.E.C. 2024-K04
    
    
More information about the Iaude
mailing list